Regional Weather Roundup
Issued by NWS

Home | Current Version | Previous Version | Text Only | Print | Product List | Glossary On
Versions: 1 2 3 4 5 6 7 8 9 10 11 12 13 14 15 16 17 18 19 20 21 22 23 24 25 26 27 28 29 30 31 32 33 34 35 36 37 38 39 40 41 42 43 44 45 46 47 48 49 50
000
ASUS44 KOUN 222310
RWROK

WEATHER ROUNDUP FOR OKLAHOMA
NATIONAL WEATHER SERVICE NORMAN OK
500 PM CST MON DEC 22 2014

NOTE: "FAIR" INDICATES FEW OR NO CLOUDS BELOW 12,000 FEET WITH NO
      SIGNIFICANT WEATHER AND/OR OBSTRUCTIONS TO VISIBILITY.

OKZ001>007-009>012-014-015-017-230000-
NORTHWEST OKLAHOMA AND THE PANHANDLE

CITY           SKY/WX    TMP DP  RH WIND       PRES   REMARKS
GAGE           MOCLDY    48  31  51 W8        29.67R
ENID/WOODRING  MOCLDY    52  37  58 NW12      29.62R
$$

OKZ016-021>023-033>039-044-045-230000-
SOUTHWEST OKLAHOMA

CITY           SKY/WX    TMP DP  RH WIND       PRES   REMARKS
LAWTON/REGL    CLOUDY    57  34  41 NW5       29.63R
LAWTON/FT SILL CLOUDY    57  33  39 N12       29.62S
FREDERICK      CLOUDY    54  37  52 NW8       29.62R
CLINTON        CLOUDY    53  32  44 NW13      29.68R
HOBART         CLOUDY    54  33  45 NW12      29.66R
ALTUS AFB      CLOUDY    57  33  39 NW15      29.66R
$$

OKZ018>020-024>031-230000-
CENTRAL OKLAHOMA

CITY           SKY/WX    TMP DP  RH WIND       PRES   REMARKS
OKLAHOMA CITY  MOCLDY    54  36  50 N12       29.62S
OKC/WILEY POST MOCLDY    54  37  52 NW8       29.63S
OKC/TINKER AFB MOCLDY    53  38  55 NW15      29.61S
STILLWATER     PTCLDY    52  38  58 W7        29.62R
GUTHRIE        PTCLDY    53  38  56 NW7       29.62R
$$

OKZ008-013-054>072-230000-
NORTHEAST OKLAHOMA

CITY           SKY/WX    TMP DP  RH WIND       PRES   REMARKS
TULSA          MOCLDY    53  44  71 NW15      29.59R
TULSA/JONES    MOCLDY    54  43  66 VRB6      29.60R
PONCA CITY     CLEAR     52  38  58 NW7       29.59R
BARTLESVILLE   MOCLDY    50  42  74 NW8       29.58R
MUSKOGEE       CLOUDY    53  45  74 W8        29.59R
$$

OKZ032-040>043-046>053-073>077-230000-
SOUTH CENTRAL/SOUTHEAST OKLAHOMA

CITY           SKY/WX    TMP DP  RH WIND       PRES   REMARKS
ARDMORE/DWNTWN CLOUDY    57  37  47 CALM      29.63R
MCALESTER      PTCLDY    55  45  68 NW6       29.59R
$$



USA.gov is the U.S. government's official web portal to all federal, state and local government web resources and services.